{"data":{"norad_id":66539,"intl_designator":"2025-265Z","name":"STARLINK-35697","alt_names":[],"object_type":"PAYLOAD","status":"ACTIVE","operator":null,"country":"US","launch_date":"2025-11-19","launch_site_code":"AFETR","launch_vehicle":null,"mission":null,"orbit_class":"UNKNOWN","rcs_meters":null,"size_class":null,"mass_kg":null,"dimensions":null,"purposes":["comms"],"wikipedia_slug":null,"has_3d_model":false,"image_url":null,"decayed_at":null,"tle_current":{"epoch":"2026-09-20T06:32:37.608864Z","epoch_age_seconds":108870,"freshness":"FRESH","line1":"1 66539U 25265Z   26263.27265751  .00012057  00000+0  44682-3 0  9994","line2":"2 66539  42.9986 258.9182 0001602 269.5856  90.4812 15.27587699 46872","mean_motion":15.27587699,"eccentricity":0.0001602,"inclination_deg":42.9986,"raan_deg":258.9182,"arg_perigee_deg":269.5856,"mean_anomaly_deg":90.4812,"bstar":0.00044682,"rev_number":4687,"period_min":94.26627361183,"perigee_km":481.92688424136,"apogee_km":484.12520088019,"semimajor_km":6861.1630425608,"source":"CELESTRAK","updated_at":"2026-09-21T09:00:35.968127Z"}}}